Location: Zürich
(47.3769°N, 8.5417°E)
Time: 10:33:13
(UTC+02:00)

ISS - Pass Details

Date: 20 May 2021
Orbit: 417 x 422 km, 51.6° (Epoch: 13 June)

Event Time Altitude Azimuth Distance (km) Brightness Sun altitude
Rises 22:54:16 0° 276° (W) 2,363 0.7 -14.7°
Reaches altitude 10° 22:56:27 10° 284° (WNW) 1,500 -0.2 -14.9°
Maximum altitude 22:59:38 39° 355° (N) 649 -2.3 -15.2°
Drops below altitude 10° 23:02:50 10° 66° (ENE) 1,504 -1.1 -15.5°
Enters shadow 23:04:20 - 73° (ENE) 2,095 -0.4 -15.7°
